Time,TemperatureF,DewpointF,PressureIn,WindDirection,WindDirectionDegrees,WindSpeedMPH,WindSpeedGustMPH,Humidity,HourlyPrecipIn,Conditions,Clouds,dailyrainin,SoftwareType,DateUTC
2013-07-23 00:05:00,69.9,66.8,29.81,East,90,0.0,4.0,90,0.00,,,-99.99,Weather View 32 v60,2013-07-23 04:05:00,
2013-07-23 00:10:00,69.9,67.1,29.81,South,180,0.0,4.0,91,0.00,,,-99.99,Weather View 32 v60,2013-07-23 04:10:00,
2013-07-23 00:15:00,69.9,66.8,29.81,SSE,158,0.0,4.0,90,0.00,,,-99.99,Weather View 32 v60,2013-07-23 04:15:00,
2013-07-23 00:20:00,69.9,66.8,29.81,SSE,158,0.0,4.0,90,0.00,,,-99.99,Weather View 32 v60,2013-07-23 04:20:00,
2013-07-23 00:25:00,69.9,66.8,29.81,ESE,113,1.0,4.0,90,0.00,,,-99.99,Weather View 32 v60,2013-07-23 04:25:00,
2013-07-23 00:35:00,69.9,67.1,29.80,ESE,113,1.0,4.0,91,0.00,,,-99.99,Weather View 32 v60,2013-07-23 04:35:00,
2013-07-23 00:45:00,69.8,67.0,29.79,SSE,158,2.0,4.0,91,0.00,,,-99.99,Weather View 32 v60,2013-07-23 04:45:00,
2013-07-23 00:50:00,69.7,66.9,29.79,NE,45,0.0,3.0,91,0.00,,,-99.99,Weather View 32 v60,2013-07-23 04:50:00,
2013-07-23 01:00:00,69.7,66.9,29.79,ESE,113,1.0,3.0,91,0.00,,,-99.99,Weather View 32 v60,2013-07-23 05:00:00,
2013-07-23 01:10:00,69.6,66.8,29.78,ENE,68,0.0,3.0,91,0.00,,,-99.99,Weather View 32 v60,2013-07-23 05:10:00,
2013-07-23 01:20:00,69.6,66.8,29.78,NE,45,1.0,3.0,91,0.00,,,-99.99,Weather View 32 v60,2013-07-23 05:20:00,
2013-07-23 01:30:00,69.5,66.7,29.77,South,180,1.0,3.0,91,0.00,,,-99.99,Weather View 32 v60,2013-07-23 05:30:00,
2013-07-23 01:36:00,69.5,66.7,29.77,SSE,158,1.0,3.0,91,0.00,,,-99.99,Weather View 32 v60,2013-07-23 05:36:00,
2013-07-23 01:45:00,69.4,67.0,29.77,ESE,113,0.0,4.0,92,0.00,,,-99.99,Weather View 32 v60,2013-07-23 05:45:00,
2013-07-23 01:55:00,69.3,66.9,29.77,East,90,1.0,4.0,92,0.00,,,-99.99,Weather View 32 v60,2013-07-23 05:55:00,
2013-07-23 02:05:00,69.2,66.8,29.76,ENE,68,1.0,4.0,92,0.00,,,-99.99,Weather View 32 v60,2013-07-23 06:05:00,
2013-07-23 02:15:00,69.1,67.0,29.75,NE,45,2.0,4.0,93,0.00,,,-99.99,Weather View 32 v60,2013-07-23 06:15:00,
2013-07-23 02:25:00,69.1,67.0,29.75,NE,45,4.0,5.0,93,0.00,,,-99.99,Weather View 32 v60,2013-07-23 06:25:00,
2013-07-23 02:35:00,69.0,67.2,29.75,East,90,1.0,5.0,94,0.00,,,-99.99,Weather View 32 v60,2013-07-23 06:35:00,
2013-07-23 02:45:00,68.8,67.0,29.74,East,90,2.0,5.0,94,0.00,,,-99.99,Weather View 32 v60,2013-07-23 06:45:00,
2013-07-23 02:55:00,68.8,67.0,29.74,ENE,68,0.0,5.0,94,0.00,,,-99.99,Weather View 32 v60,2013-07-23 06:55:00,
2013-07-23 03:05:00,68.8,67.3,29.74,NE,45,0.0,5.0,95,0.00,,,-99.99,Weather View 32 v60,2013-07-23 07:05:00,
2013-07-23 03:10:00,68.8,67.3,29.73,NE,45,0.0,5.0,95,0.00,,,-99.99,Weather View 32 v60,2013-07-23 07:10:00,
2013-07-23 03:20:00,68.7,67.2,29.73,NNE,23,4.0,7.0,95,0.00,,,-99.99,Weather View 32 v60,2013-07-23 07:20:00,
2013-07-23 03:30:00,68.5,67.0,29.72,South,180,1.0,7.0,95,0.00,,,-99.99,Weather View 32 v60,2013-07-23 07:30:00,
2013-07-23 03:37:00,68.5,67.3,29.72,ESE,113,2.0,7.0,96,0.00,,,-99.99,Weather View 32 v60,2013-07-23 07:37:00,
2013-07-23 03:45:00,68.5,67.3,29.71,East,90,2.0,7.0,96,0.00,,,-99.99,Weather View 32 v60,2013-07-23 07:45:00,
2013-07-23 03:50:00,68.5,67.3,29.71,South,180,1.0,7.0,96,0.00,,,-99.99,Weather View 32 v60,2013-07-23 07:50:00,
2013-07-23 04:00:00,68.4,67.2,29.71,South,180,1.0,7.0,96,0.00,,,-99.99,Weather View 32 v60,2013-07-23 08:00:00,
2013-07-23 04:10:00,68.4,67.2,29.70,SSE,158,1.0,7.0,96,0.00,,,-99.99,Weather View 32 v60,2013-07-23 08:10:00,
2013-07-23 04:15:00,68.4,67.5,29.70,SSE,158,1.0,6.0,97,0.00,,,-99.99,Weather View 32 v60,2013-07-23 08:15:00,
2013-07-23 04:20:00,68.4,67.5,29.70,NE,45,5.0,6.0,97,0.00,,,-99.99,Weather View 32 v60,2013-07-23 08:20:00,
2013-07-23 04:25:00,68.4,67.5,29.70,NNE,23,1.0,6.0,97,0.00,,,-99.99,Weather View 32 v60,2013-07-23 08:25:00,
2013-07-23 04:30:00,68.3,67.4,29.70,South,180,2.0,6.0,97,0.00,,,-99.99,Weather View 32 v60,2013-07-23 08:30:00,
2013-07-23 04:38:00,68.3,67.4,29.70,South,180,2.0,6.0,97,0.00,,,-99.99,Weather View 32 v60,2013-07-23 08:38:00,
2013-07-23 04:45:00,68.3,67.4,29.69,SSE,158,1.0,6.0,97,0.00,,,-99.99,Weather View 32 v60,2013-07-23 08:45:00,
2013-07-23 04:55:00,68.3,67.4,29.69,South,180,1.0,6.0,97,0.00,,,-99.99,Weather View 32 v60,2013-07-23 08:55:00,
2013-07-23 05:00:00,68.3,67.7,29.69,NNE,23,1.0,6.0,98,0.00,,,-99.99,Weather View 32 v60,2013-07-23 09:00:00,
2013-07-23 05:10:00,68.4,67.8,29.69,South,180,1.0,6.0,98,0.00,,,-99.99,Weather View 32 v60,2013-07-23 09:10:00,
2013-07-23 05:20:00,68.4,67.8,29.68,South,180,2.0,7.0,98,0.00,,,-99.99,Weather View 32 v60,2013-07-23 09:20:00,
2013-07-23 05:30:00,68.4,67.8,29.68,SSE,158,1.0,7.0,98,0.00,,,-99.99,Weather View 32 v60,2013-07-23 09:30:00,
2013-07-23 05:38:00,68.4,67.8,29.68,SSE,158,1.0,7.0,98,0.00,,,-99.99,Weather View 32 v60,2013-07-23 09:38:00,
2013-07-23 05:45:00,68.4,67.8,29.68,North,0,1.0,7.0,98,0.00,,,-99.99,Weather View 32 v60,2013-07-23 09:45:00,
2013-07-23 05:55:00,68.4,67.8,29.68,SSW,203,1.0,7.0,98,0.00,,,-99.99,Weather View 32 v60,2013-07-23 09:55:00,
2013-07-23 06:05:00,68.4,67.8,29.67,SSW,203,3.0,7.0,98,0.00,,,-99.99,Weather View 32 v60,2013-07-23 10:05:00,
2013-07-23 06:10:00,68.4,67.8,29.67,North,0,3.0,7.0,98,0.00,,,-99.99,Weather View 32 v60,2013-07-23 10:10:00,
2013-07-23 06:20:00,68.5,68.2,29.67,SSW,203,1.0,6.0,99,0.00,,,-99.99,Weather View 32 v60,2013-07-23 10:20:00,
2013-07-23 06:25:00,68.5,68.2,29.67,NE,45,1.0,6.0,99,0.00,,,-99.99,Weather View 32 v60,2013-07-23 10:25:00,
2013-07-23 06:35:00,68.5,68.2,29.66,SSW,203,2.0,6.0,99,0.00,,,-99.99,Weather View 32 v60,2013-07-23 10:35:00,
2013-07-23 06:40:00,68.6,68.3,29.66,SSW,203,1.0,6.0,99,0.00,,,-99.99,Weather View 32 v60,2013-07-23 10:40:00,
2013-07-23 06:50:00,68.5,68.2,29.66,SSW,203,1.0,6.0,99,0.00,,,-99.99,Weather View 32 v60,2013-07-23 10:50:00,
2013-07-23 06:55:00,68.5,68.2,29.65,SSW,203,1.0,6.0,99,0.00,,,-99.99,Weather View 32 v60,2013-07-23 10:55:00,
2013-07-23 07:05:00,68.6,68.3,29.65,SSW,203,1.0,7.0,99,0.00,,,-99.99,Weather View 32 v60,2013-07-23 11:05:00,
2013-07-23 07:15:00,68.6,68.3,29.65,SSE,158,2.0,7.0,99,0.00,,,-99.99,Weather View 32 v60,2013-07-23 11:15:00,
2013-07-23 07:25:00,68.7,68.4,29.64,NNE,23,1.0,7.0,99,0.00,,,-99.99,Weather View 32 v60,2013-07-23 11:25:00,
2013-07-23 07:35:00,68.7,68.4,29.64,NNE,23,1.0,7.0,99,0.00,,,-99.99,Weather View 32 v60,2013-07-23 11:35:00,
2013-07-23 07:40:00,68.7,68.4,29.64,South,180,2.0,7.0,99,0.00,,,-99.99,Weather View 32 v60,2013-07-23 11:40:00,
2013-07-23 07:50:00,68.7,68.7,29.64,SSE,158,2.0,7.0,100,0.00,,,-99.99,Weather View 32 v60,2013-07-23 11:50:00,
2013-07-23 07:55:00,68.7,68.7,29.63,SSE,158,1.0,7.0,100,0.00,,,-99.99,Weather View 32 v60,2013-07-23 11:55:00,
2013-07-23 08:00:00,68.7,68.7,29.63,SSE,158,1.0,6.0,100,0.00,,,-99.99,Weather View 32 v60,2013-07-23 12:00:00,
2013-07-23 08:10:00,68.8,68.8,29.63,NE,45,1.0,6.0,100,0.01,,,-99.99,Weather View 32 v60,2013-07-23 12:10:00,
2013-07-23 08:20:00,68.9,68.9,29.63,South,180,0.0,6.0,100,0.01,,,-99.99,Weather View 32 v60,2013-07-23 12:20:00,
2013-07-23 08:25:00,68.9,68.9,29.63,SSE,158,1.0,6.0,100,0.01,,,-99.99,Weather View 32 v60,2013-07-23 12:25:00,
2013-07-23 08:30:00,68.9,68.9,29.62,South,180,2.0,6.0,100,0.01,,,-99.99,Weather View 32 v60,2013-07-23 12:30:00,
2013-07-23 08:40:00,69.0,69.0,29.61,NNE,23,1.0,6.0,100,0.01,,,-99.99,Weather View 32 v60,2013-07-23 12:40:00,
2013-07-23 08:50:00,68.9,68.9,29.60,SSE,158,1.0,6.0,100,0.01,,,-99.99,Weather View 32 v60,2013-07-23 12:50:00,
2013-07-23 08:55:00,69.0,69.0,29.60,South,180,1.0,5.0,100,0.01,,,-99.99,Weather View 32 v60,2013-07-23 12:55:00,
2013-07-23 09:00:00,69.2,69.2,29.59,South,180,2.0,7.0,100,0.01,,,-99.99,Weather View 32 v60,2013-07-23 13:00:00,
2013-07-23 09:10:00,69.4,69.4,29.60,South,180,1.0,7.0,100,0.01,,,-99.99,Weather View 32 v60,2013-07-23 13:10:00,
2013-07-23 09:15:00,69.5,69.5,29.60,SSE,158,1.0,7.0,100,0.01,,,-99.99,Weather View 32 v60,2013-07-23 13:15:00,
2013-07-23 09:25:00,69.5,69.5,29.60,SSE,158,2.0,7.0,100,0.01,,,-99.99,Weather View 32 v60,2013-07-23 13:25:00,
2013-07-23 09:30:00,69.5,69.5,29.59,SSE,158,1.0,7.0,100,0.01,,,-99.99,Weather View 32 v60,2013-07-23 13:30:00,
2013-07-23 09:40:00,69.8,69.8,29.59,SSE,158,1.0,7.0,100,0.01,,,-99.99,Weather View 32 v60,2013-07-23 13:40:00,
2013-07-23 09:50:00,70.0,70.0,29.59,SSE,158,0.0,7.0,100,0.01,,,-99.99,Weather View 32 v60,2013-07-23 13:50:00,
2013-07-23 10:00:00,70.2,70.2,29.59,South,180,1.0,7.0,100,0.02,,,-99.99,Weather View 32 v60,2013-07-23 14:00:00,
2013-07-23 10:10:00,70.3,70.3,29.58,SSE,158,0.0,3.0,100,0.01,,,-99.99,Weather View 32 v60,2013-07-23 14:10:00,
2013-07-23 10:20:00,70.5,70.5,29.58,South,180,1.0,3.0,100,0.01,,,-99.99,Weather View 32 v60,2013-07-23 14:20:00,
2013-07-23 10:30:00,70.5,70.5,29.57,SSE,158,1.0,3.0,100,0.01,,,-99.99,Weather View 32 v60,2013-07-23 14:30:00,
2013-07-23 10:40:00,70.9,70.9,29.57,SSE,158,1.0,3.0,100,0.02,,,-99.99,Weather View 32 v60,2013-07-23 14:40:00,
2013-07-23 10:50:00,71.3,71.3,29.56,South,180,1.0,3.0,100,0.02,,,-99.99,Weather View 32 v60,2013-07-23 14:50:00,
2013-07-23 11:00:00,71.7,71.7,29.56,SSE,158,0.0,3.0,100,0.01,,,-99.99,Weather View 32 v60,2013-07-23 15:00:00,
2013-07-23 11:10:00,72.0,72.0,29.56,South,180,1.0,3.0,100,0.01,,,-99.99,Weather View 32 v60,2013-07-23 15:10:00,
2013-07-23 11:20:00,72.3,72.3,29.56,South,180,1.0,3.0,100,0.01,,,-99.99,Weather View 32 v60,2013-07-23 15:20:00,
2013-07-23 11:30:00,72.7,72.7,29.55,South,180,1.0,3.0,100,0.02,,,-99.99,Weather View 32 v60,2013-07-23 15:30:00,
2013-07-23 11:40:00,73.1,73.1,29.55,South,180,1.0,3.0,100,0.01,,,-99.99,Weather View 32 v60,2013-07-23 15:40:00,
2013-07-23 11:45:00,73.4,73.4,29.54,SSE,158,1.0,3.0,100,0.01,,,-99.99,Weather View 32 v60,2013-07-23 15:45:00,
2013-07-23 11:55:00,73.8,73.8,29.54,SSE,158,0.0,3.0,100,0.01,,,-99.99,Weather View 32 v60,2013-07-23 15:55:00,
2013-07-23 12:00:00,74.0,74.0,29.54,NE,45,1.0,3.0,100,0.01,,,-99.99,Weather View 32 v60,2013-07-23 16:00:00,
2013-07-23 12:10:00,74.2,74.2,29.53,NE,45,0.0,3.0,100,0.01,,,-99.99,Weather View 32 v60,2013-07-23 16:10:00,
2013-07-23 12:20:00,74.3,74.3,29.52,NE,45,1.0,3.0,100,0.01,,,-99.99,Weather View 32 v60,2013-07-23 16:20:00,
2013-07-23 12:25:00,74.3,74.3,29.52,NE,45,1.0,3.0,100,0.00,,,-99.99,Weather View 32 v60,2013-07-23 16:25:00,
2013-07-23 12:30:00,74.2,74.2,29.51,NNE,23,2.0,4.0,100,0.00,,,-99.99,Weather View 32 v60,2013-07-23 16:30:00,
2013-07-23 12:40:00,74.2,74.2,29.50,NE,45,2.0,4.0,100,0.01,,,-99.99,Weather View 32 v60,2013-07-23 16:40:00,
2013-07-23 12:45:00,74.1,74.1,29.51,NNE,23,3.0,4.0,100,0.01,,,-99.99,Weather View 32 v60,2013-07-23 16:45:00,
2013-07-23 12:50:00,74.0,74.0,29.50,SSE,158,3.0,4.0,100,0.01,,,-99.99,Weather View 32 v60,2013-07-23 16:50:00,
2013-07-23 13:00:00,73.7,73.7,29.51,NE,45,4.0,9.0,100,0.01,,,-99.99,Weather View 32 v60,2013-07-23 17:00:00,
2013-07-23 13:10:00,73.0,72.7,29.49,NNE,23,2.0,9.0,99,0.02,,,-99.99,Weather View 32 v60,2013-07-23 17:10:00,
2013-07-23 13:15:00,72.9,72.9,29.50,NE,45,3.0,9.0,100,0.02,,,-99.99,Weather View 32 v60,2013-07-23 17:15:00,
2013-07-23 13:25:00,73.0,73.0,29.51,NNE,23,2.0,9.0,100,0.02,,,-99.99,Weather View 32 v60,2013-07-23 17:25:00,
2013-07-23 13:35:00,73.1,73.1,29.50,SSE,158,1.0,9.0,100,0.03,,,-99.99,Weather View 32 v60,2013-07-23 17:35:00,
2013-07-23 13:42:00,73.4,73.4,29.50,NE,45,2.0,9.0,100,0.02,,,-99.99,Weather View 32 v60,2013-07-23 17:42:00,
2013-07-23 13:50:00,73.7,73.7,29.50,South,180,0.0,9.0,100,0.03,,,-99.99,Weather View 32 v60,2013-07-23 17:50:00,
2013-07-23 14:00:00,73.8,73.8,29.50,South,180,0.0,7.0,100,0.03,,,-99.99,Weather View 32 v60,2013-07-23 18:00:00,
2013-07-23 14:05:00,73.8,73.8,29.50,SSE,158,0.0,4.0,100,0.03,,,-99.99,Weather View 32 v60,2013-07-23 18:05:00,
2013-07-23 14:15:00,73.9,73.9,29.50,SSE,158,0.0,4.0,100,0.03,,,-99.99,Weather View 32 v60,2013-07-23 18:15:00,
2013-07-23 14:25:00,74.7,74.7,29.50,East,90,1.0,4.0,100,0.03,,,-99.99,Weather View 32 v60,2013-07-23 18:25:00,
2013-07-23 14:40:00,75.7,75.7,29.49,SE,135,1.0,4.0,100,0.03,,,-99.99,Weather View 32 v60,2013-07-23 18:40:00,
2013-07-23 14:55:00,76.8,76.2,29.48,NE,45,1.0,4.0,98,0.02,,,-99.99,Weather View 32 v60,2013-07-23 18:55:00,
2013-07-23 15:00:00,77.3,76.7,29.48,SSE,158,1.0,4.0,98,0.03,,,-99.99,Weather View 32 v60,2013-07-23 19:00:00,
2013-07-23 15:15:00,78.1,76.9,29.48,NNE,23,1.0,4.0,96,0.02,,,-99.99,Weather View 32 v60,2013-07-23 19:15:00,
2013-07-23 15:25:00,78.2,76.6,29.47,NE,45,0.0,4.0,95,0.03,,,-99.99,Weather View 32 v60,2013-07-23 19:25:00,
2013-07-23 15:40:00,77.9,76.0,29.49,ESE,113,2.0,4.0,94,0.03,,,-99.99,Weather View 32 v60,2013-07-23 19:40:00,
2013-07-23 15:55:00,74.9,72.1,29.49,NE,45,2.0,14.0,91,0.04,,,-99.99,Weather View 32 v60,2013-07-23 19:55:00,
2013-07-23 16:10:00,72.7,70.5,29.48,South,180,1.0,14.0,93,0.03,,,-99.99,Weather View 32 v60,2013-07-23 20:10:00,
2013-07-23 16:15:00,72.3,70.5,29.47,South,180,2.0,14.0,94,0.04,,,-99.99,Weather View 32 v60,2013-07-23 20:15:00,
2013-07-23 16:20:00,72.2,70.7,29.47,SSE,158,1.0,14.0,95,0.04,,,-99.99,Weather View 32 v60,2013-07-23 20:20:00,
2013-07-23 16:25:00,72.3,71.1,29.48,SSE,158,1.0,14.0,96,0.03,,,-99.99,Weather View 32 v60,2013-07-23 20:25:00,
2013-07-23 16:35:00,72.4,71.2,29.48,South,180,0.0,14.0,96,0.04,,,-99.99,Weather View 32 v60,2013-07-23 20:35:00,
2013-07-23 16:40:00,72.5,71.6,29.47,SSE,158,0.0,14.0,97,0.03,,,-99.99,Weather View 32 v60,2013-07-23 20:40:00,
2013-07-23 16:50:00,72.4,71.5,29.48,SSE,158,1.0,5.0,97,0.04,,,-99.99,Weather View 32 v60,2013-07-23 20:50:00,
2013-07-23 16:55:00,72.4,71.5,29.47,SSE,158,0.0,3.0,97,0.03,,,-99.99,Weather View 32 v60,2013-07-23 20:55:00,
2013-07-23 17:05:00,72.6,71.7,29.48,SSE,158,1.0,3.0,97,0.04,,,-99.99,Weather View 32 v60,2013-07-23 21:05:00,
2013-07-23 17:15:00,72.8,71.9,29.47,SSE,158,1.0,3.0,97,0.03,,,-99.99,Weather View 32 v60,2013-07-23 21:15:00,
2013-07-23 17:25:00,73.0,72.4,29.47,South,180,3.0,4.0,98,0.03,,,-99.99,Weather View 32 v60,2013-07-23 21:25:00,
2013-07-23 17:35:00,73.2,72.6,29.47,SE,135,0.0,4.0,98,0.03,,,-99.99,Weather View 32 v60,2013-07-23 21:35:00,
2013-07-23 17:40:00,73.3,72.7,29.47,East,90,1.0,4.0,98,0.03,,,-99.99,Weather View 32 v60,2013-07-23 21:40:00,
2013-07-23 17:45:00,73.3,72.7,29.48,East,90,0.0,4.0,98,0.03,,,-99.99,Weather View 32 v60,2013-07-23 21:45:00,
2013-07-23 17:55:00,73.4,72.8,29.47,ESE,113,0.0,4.0,98,0.03,,,-99.99,Weather View 32 v60,2013-07-23 21:55:00,
2013-07-23 18:05:00,73.4,72.8,29.48,ESE,113,0.0,4.0,98,0.02,,,-99.99,Weather View 32 v60,2013-07-23 22:05:00,
2013-07-23 18:10:00,73.5,72.9,29.48,ESE,113,1.0,4.0,98,0.03,,,-99.99,Weather View 32 v60,2013-07-23 22:10:00,
2013-07-23 18:15:00,73.5,72.9,29.49,ESE,113,0.0,4.0,98,0.03,,,-99.99,Weather View 32 v60,2013-07-23 22:15:00,
2013-07-23 18:30:00,73.4,73.1,29.48,ESE,113,0.0,3.0,99,0.02,,,-99.99,Weather View 32 v60,2013-07-23 22:30:00,
2013-07-23 18:40:00,73.4,73.1,29.49,SSE,158,1.0,3.0,99,0.03,,,-99.99,Weather View 32 v60,2013-07-23 22:40:00,
2013-07-23 18:45:00,73.4,73.1,29.49,SSE,158,2.0,3.0,99,0.03,,,-99.99,Weather View 32 v60,2013-07-23 22:45:00,
2013-07-23 19:05:00,73.2,72.9,29.50,South,180,0.0,3.0,99,0.03,,,-99.99,Weather View 32 v60,2013-07-23 23:05:00,
2013-07-23 19:15:00,73.2,72.9,29.50,South,180,0.0,3.0,99,0.03,,,-99.99,Weather View 32 v60,2013-07-23 23:15:00,
2013-07-23 19:25:00,73.2,72.9,29.50,South,180,0.0,3.0,99,0.03,,,-99.99,Weather View 32 v60,2013-07-23 23:25:00,
2013-07-23 19:30:00,73.1,72.8,29.50,South,180,0.0,3.0,99,0.04,,,-99.99,Weather View 32 v60,2013-07-23 23:30:00,
2013-07-23 19:40:00,73.1,72.8,29.51,South,180,0.0,3.0,99,0.03,,,-99.99,Weather View 32 v60,2013-07-23 23:40:00,
2013-07-23 19:46:00,73.1,72.8,29.51,South,180,0.0,3.0,99,0.04,,,-99.99,Weather View 32 v60,2013-07-23 23:46:00,
2013-07-23 19:55:00,73.1,72.8,29.51,South,180,0.0,3.0,99,0.04,,,-99.99,Weather View 32 v60,2013-07-23 23:55:00,
2013-07-23 20:05:00,73.1,72.8,29.51,South,180,0.0,2.0,99,0.04,,,-99.99,Weather View 32 v60,2013-07-24 00:05:00,
2013-07-23 20:15:00,73.1,72.8,29.52,South,180,0.0,2.0,99,0.03,,,-99.99,Weather View 32 v60,2013-07-24 00:15:00,
2013-07-23 20:25:00,72.9,72.6,29.51,South,180,0.0,2.0,99,0.04,,,-99.99,Weather View 32 v60,2013-07-24 00:25:00,
2013-07-23 20:40:00,72.7,72.4,29.51,South,180,0.0,1.0,99,0.03,,,-99.99,Weather View 32 v60,2013-07-24 00:40:00,
2013-07-23 20:46:00,72.7,72.4,29.51,South,180,0.0,1.0,99,0.03,,,-99.99,Weather View 32 v60,2013-07-24 00:46:00,
2013-07-23 20:55:00,72.5,72.2,29.51,South,180,0.0,3.0,99,0.03,,,-99.99,Weather View 32 v60,2013-07-24 00:55:00,
2013-07-23 21:00:00,72.4,72.1,29.50,South,180,0.0,3.0,99,0.04,,,-99.99,Weather View 32 v60,2013-07-24 01:00:00,
2013-07-23 21:15:00,72.2,71.9,29.51,South,180,0.0,3.0,99,0.03,,,-99.99,Weather View 32 v60,2013-07-24 01:15:00,
2013-07-23 21:20:00,72.2,71.9,29.52,South,180,0.0,3.0,99,0.03,,,-99.99,Weather View 32 v60,2013-07-24 01:20:00,
2013-07-23 21:30:00,72.1,72.1,29.52,South,180,0.0,3.0,100,0.03,,,-99.99,Weather View 32 v60,2013-07-24 01:30:00,
2013-07-23 21:35:00,72.0,72.0,29.52,South,180,0.0,3.0,100,0.03,,,-99.99,Weather View 32 v60,2013-07-24 01:35:00,
2013-07-23 21:40:00,71.9,71.9,29.52,South,180,0.0,3.0,100,0.03,,,-99.99,Weather View 32 v60,2013-07-24 01:40:00,
2013-07-23 21:47:00,71.9,71.9,29.52,South,180,0.0,3.0,100,0.03,,,-99.99,Weather View 32 v60,2013-07-24 01:47:00,
2013-07-23 21:55:00,71.8,71.8,29.52,South,180,0.0,3.0,100,0.03,,,-99.99,Weather View 32 v60,2013-07-24 01:55:00,
2013-07-23 22:00:00,71.8,71.8,29.52,South,180,0.0,3.0,100,0.02,,,-99.99,Weather View 32 v60,2013-07-24 02:00:00,
2013-07-23 22:10:00,71.6,71.6,29.52,South,180,0.0,3.0,100,0.03,,,-99.99,Weather View 32 v60,2013-07-24 02:10:00,
2013-07-23 22:20:00,71.5,71.5,29.52,South,180,0.0,3.0,100,0.03,,,-99.99,Weather View 32 v60,2013-07-24 02:20:00,
2013-07-23 22:35:00,71.3,71.3,29.52,South,180,0.0,1.0,100,0.04,,,-99.99,Weather View 32 v60,2013-07-24 02:35:00,
2013-07-23 22:45:00,71.2,71.2,29.52,South,180,0.0,1.0,100,0.04,,,-99.99,Weather View 32 v60,2013-07-24 02:45:00,
2013-07-23 22:50:00,71.2,71.2,29.53,South,180,0.0,0.0,100,0.04,,,-99.99,Weather View 32 v60,2013-07-24 02:50:00,
2013-07-23 22:55:00,71.2,71.2,29.52,South,180,0.0,0.0,100,0.04,,,-99.99,Weather View 32 v60,2013-07-24 02:55:00,
2013-07-23 23:00:00,71.2,71.2,29.52,South,180,0.0,0.0,100,0.05,,,-99.99,Weather View 32 v60,2013-07-24 03:00:00,
2013-07-23 23:05:00,71.1,71.1,29.52,South,180,0.0,0.0,100,0.06,,,-99.99,Weather View 32 v60,2013-07-24 03:05:00,
2013-07-23 23:10:00,71.0,71.0,29.52,South,180,0.0,0.0,100,0.05,,,-99.99,Weather View 32 v60,2013-07-24 03:10:00,
2013-07-23 23:15:00,71.0,71.0,29.52,South,180,0.0,0.0,100,0.06,,,-99.99,Weather View 32 v60,2013-07-24 03:15:00,
2013-07-23 23:25:00,70.8,70.8,29.52,South,180,0.0,0.0,100,0.07,,,-99.99,Weather View 32 v60,2013-07-24 03:25:00,
2013-07-23 23:30:00,70.7,70.7,29.52,South,180,0.0,0.0,100,0.08,,,-99.99,Weather View 32 v60,2013-07-24 03:30:00,
2013-07-23 23:40:00,70.7,70.7,29.53,South,180,0.0,0.0,100,0.09,,,-99.99,Weather View 32 v60,2013-07-24 03:40:00,
2013-07-23 23:45:00,70.5,70.5,29.52,South,180,0.0,0.0,100,0.09,,,-99.99,Weather View 32 v60,2013-07-24 03:45:00,
2013-07-23 23:55:00,70.4,70.4,29.52,South,180,0.0,0.0,100,0.11,,,-99.99,Weather View 32 v60,2013-07-24 03:55:00,